Tracking 20623 objects as of 3-Apr-2020
HD Live streaming from Space Station
objects crossing your sky now

SL-14 DEB

Track SL-14 DEB now!
10-day predictions


NORAD ID: 25221
Int'l Code: 1987-068AY
Perigee: 941.2 km
Apogee: 1,188.3 km
Inclination: 82.3 °
Period: 106.4 minutes
Semi major axis: 7435 km
RCS: 0.077 m2 (small)
Launch date: August 18, 1987
Source: Commonwealth of Independent States (former USSR) (CIS)
Launch site: PLESETSK MISSILE AND SPACE COMPLEX (PKMTR)

Note: This is SATELLITE DEBRIS
aabbcc
Your satellite tracking list
Your tracking list is empty




NASA's NSSDC Master Catalog

Two Line Element Set (TLE):
1 25221U 87068AY  20094.41093650 +.00000119 +00000-0 +14523-3 0  9993
2 25221 082.2980 064.6895 0166148 322.6684 196.5774 13.53992789091542
Source of the keplerian elements: AFSPC